"Pseudo-MPEC" for P21CjeL

Created 2022 Dec 21 11:22:21 UT using Find_Orb

Click here for an explanation of pseudo-MPECs

 
 Astrometry: 
     P21CjeL  C2022 12 01pkA]a54Da(tBwp\8c/C[fHvR9aXF#hvt3rWt-EsH'GkXq'KZjnoWF52
     P21CjeL* C2022 12 01pkcd,v0Astrometry0da^QYoL@;yiv4Uq;Qredacted;_tjFTR?@F52
     P21CjeL  C2022 12 01q_pwYevHav\GQvR7pS-;SgI+ChHcn5-r2g7ciy9oa1lmH0WSw'_uF52
     P21CjeL  C2022 12 01Ia8rcM%6:FMWjJpv1[clickhY^^Yn3hereEwL@F33rP:xfTxneBtF51
     P21CjeL  C2022 12 0168p!N8Z2wnm'%jSj@3cpM;]\m+G6%7(P9VhMh?AH2HNVUN!O;dFhF51
     P21CjeL  C2022 12 11.19474 01 41 14.41 +44 07 18.9    ~CL6M 21.3 GVNEOCPG96
     P21CjeL  C2022 12 11.19986 01 41 16.92 +44 07 21.5    ~CL6M 20.7 GVNEOCPG96
     P21CjeL  C2022 12 11.20500 01 41 19.51 +44 07 24.5    ~CL6M       VNEOCPG96
     P21CjeL  C2022 12 11.21012 01 41 21.99 +44 07 26.1    ~CL6M 21.2 GVNEOCPG96
     P21CjeL  C2022 12 21Y]for$hG=ywVUf*D_KFLNt(]]g=Gg,Z$0al6Wm.Vkd21H0pNVBV+V00
     P21CjeL  C2022 12 21%m-bZKdG1xKu_qf=etsV8_Aao7iexplanation4E1m8rUMCstTr*V00
     P21CjeL  C2022 12 21WKpN6jHF(agCWY27m1:$toQi%LaYVr+LGApIBS0cvABc2it4)x/SV00
     P21CjeL  C2022 12 21)'B/S]hd/sjVoaY7:Dj?wSRf(@JZ)#d0yM6o(ECLV8g5)[3]L-4YV00

Station data:
(F51) Pan-STARRS 1, Haleakala  (N20.707234 W156.255910)  US/Hawaii.
   Observers J. Bulger, T. Lowe, A. Schultz, M. Willman. Measurers K.
   Chambers, S. Chastel, T. de Boer, L. Denneau, J. Fairlamb, H. Flewelling,
   M. Huber, C.-C. Lin, E. Magnier, Y. Ramanjooloo, R. Wainscoat, R. Weryk.
   1.8-m Ritchey-Chrétien + CCD.
(F52) Pan-STARRS 2, Haleakala  (N20.707382 W156.255910)  US/Hawaii.
   Observers J. Bulger, T. Dukes, T. Lowe, A. Schultz, M. Willman. Measurers
   K. Chambers, S. Chastel, T. de Boer, L. Denneau, J. Fairlamb, H.
   Flewelling, M. Huber, C.-C. Lin, E. Magnier, Y. Ramanjooloo, R. Wainscoat,
   R. Weryk. 1.8-m Ritchey-Chrétien + CCD.
(G96) Mt. Lemmon Survey  (N32.442751 W110.788720)  US/Arizona.  Observers T.
   A. Pruyne, B. M. Africano, E. J. Christensen, G. A. Farneth, D. C. Fuls,
   A. R. Gibbs, A. D. Grauer, H. Gröller, J. A. Johnson, R. A. Kowalski, S.
   M. Larson, G. J. Leonard, D. Rankin, R. L. Seaman, F. C. Shelly, K. W.
   Wierzchoś. 1.5-m reflector + 10K CCD.
(V00) Kitt Peak-Bok  (N31.963125 W111.600190)  US/Arizona.  Observers T. A.
   Pruyne, B. M. Africano, E. J. Christensen, G. A. Farneth, D. C. Fuls, A.
   R. Gibbs, A. D. Grauer, H. Gröller, J. A. Johnson, R. A. Kowalski, S. M.
   Larson, G. J. Leonard, D. Rankin, R. L. Seaman, F. C. Shelly, K. W.
   Wierzchoś. 2.25-m reflector + CCD.

Orbital elements:  P21CjeL
   Perihelion 2022 Oct 5.80557 +/- 0.0415 TT = 19:20:01 (JD 2459858.30557)
Epoch 2022 Dec 21.0 TT = JDT 2459934.5   Earth MOID: 0.0284   Ve: 0.0871
M  50.56415836 +/- 0.12             Ma: 0.0572                   AutoNEOCP
n   0.66362012 +/- 0.00123          Peri.  302.03402 +/- 0.021
a   1.30173630 +/- 0.00161          Node    47.30699 +/- 0.012
e   0.3827621 +/- 0.000964          Incl.    7.98314 +/- 0.014
P   1.49/542.47d           H 23.38  G  0.15   U  8.2
q 0.80348085 +/- 0.000261    Q 1.79999175 +/- 0.00348     (J2000 ecliptic)
From 13 observations 2022 Dec. 1-21; mean residual 0".23
Residuals in arcseconds: 
221201 F52  .41-  .20-    221211 G96  .20-  .49-    221221 V00  .01-  .11+    
221201 F52  .05+  .01+    221211 G96  .27-  .14-    221221 V00  .03-  .09+    
221201 F52  .30+  .14+    221211 G96  .42+  .64+    221221 V00  .03+  .22-    
221201 F51  .08-  .04-    221211 G96  .03+  .06+    
221201 F51  .14+  .07+    221221 V00  .01+  .04-    

Ephemerides (geocentric):
Date (UTC) HH   RA             Dec           delta  r     elong  mag " sig PA
---- --------  ------------   ------------  ------ ------ -----  --- --------
2022 12 21 11  02 44 14.647   +43 51 23.66  .21165 1.1452 135.8 21.8 .182 166
2022 12 21 12  02 44 25.603   +43 51 07.41  .21197 1.1454 135.8 21.8 .186 165
2022 12 21 13  02 44 36.535   +43 50 51.12  .21230 1.1457 135.8 21.9 .190 163
2022 12 21 14  02 44 47.443   +43 50 34.79  .21262 1.1460 135.8 21.9 .194 162
2022 12 21 15  02 44 58.329   +43 50 18.42  .21295 1.1462 135.8 21.9 .199 161
2022 12 21 16  02 45 09.192   +43 50 02.01  .21328 1.1465 135.8 21.9 .203 160
2022 12 21 17  02 45 20.032   +43 49 45.55  .21360 1.1467 135.8 21.9 .207 159
2022 12 21 18  02 45 30.849   +43 49 29.06  .21393 1.1470 135.8 21.9 .212 158
2022 12 21 19  02 45 41.644   +43 49 12.52  .21426 1.1473 135.8 21.9 .217 157
2022 12 21 20  02 45 52.416   +43 48 55.95  .21458 1.1475 135.8 21.9 .221 156
2022 12 21 21  02 46 03.166   +43 48 39.33  .21491 1.1478 135.8 21.9 .226 155
2022 12 21 22  02 46 13.894   +43 48 22.68  .21524 1.1480 135.8 21.9 .231 154
2022 12 21 23  02 46 24.599   +43 48 05.99  .21556 1.1483 135.8 21.9 .236 153
2022 12 22 00  02 46 35.282   +43 47 49.26  .21589 1.1486 135.8 21.9 .241 152
2022 12 22 01  02 46 45.943   +43 47 32.49  .21622 1.1488 135.8 21.9 .247 151
2022 12 22 02  02 46 56.582   +43 47 15.68  .21655 1.1491 135.8 21.9 .252 150
2022 12 22 03  02 47 07.200   +43 46 58.84  .21687 1.1493 135.8 21.9 .257 149
2022 12 22 04  02 47 17.795   +43 46 41.96  .21720 1.1496 135.8 21.9 .263 149
2022 12 22 05  02 47 28.369   +43 46 25.04  .21753 1.1499 135.8 21.9 .268 148
2022 12 22 06  02 47 38.922   +43 46 08.09  .21786 1.1501 135.8 21.9 .274 147
2022 12 22 07  02 47 49.453   +43 45 51.10  .21818 1.1504 135.8 21.9 .279 147
2022 12 22 08  02 47 59.962   +43 45 34.08  .21851 1.1506 135.8 21.9 .285 146
2022 12 22 09  02 48 10.451   +43 45 17.02  .21884 1.1509 135.8 21.9 .291 145
2022 12 22 10  02 48 20.918   +43 44 59.93  .21917 1.1512 135.8 21.9 .297 145
2022 12 22 11  02 48 31.364   +43 44 42.80  .21950 1.1514 135.8 21.9 .303 144
2022 12 22 12  02 48 41.790   +43 44 25.64  .21983 1.1517 135.8 21.9 .309 143
2022 12 22 13  02 48 52.194   +43 44 08.44  .22016 1.1519 135.8 21.9 .315 143
2022 12 22 14  02 49 02.578   +43 43 51.21  .22049 1.1522 135.8 21.9 .321 142
2022 12 22 15  02 49 12.941   +43 43 33.95  .22082 1.1525 135.8 21.9 .327 142
2022 12 22 16  02 49 23.283   +43 43 16.65  .22115 1.1527 135.8 21.9 .334 141
2022 12 22 17  02 49 33.605   +43 42 59.32  .22147 1.1530 135.8 22.0 .340 141
2022 12 22 18  02 49 43.907   +43 42 41.96  .22180 1.1532 135.8 22.0 .347 140
2022 12 22 19  02 49 54.188   +43 42 24.57  .22213 1.1535 135.8 22.0 .353 140
2022 12 22 20  02 50 04.449   +43 42 07.15  .22246 1.1537 135.8 22.0 .360 139
2022 12 22 21  02 50 14.690   +43 41 49.69  .22279 1.1540 135.8 22.0 .366 139
2022 12 22 22  02 50 24.911   +43 41 32.21  .22313 1.1543 135.8 22.0 .373 138
2022 12 22 23  02 50 35.112   +43 41 14.69  .22346 1.1545 135.8 22.0 .380 138
2022 12 23 00  02 50 45.293   +43 40 57.14  .22379 1.1548 135.8 22.0 .386 137
2022 12 23 01  02 50 55.454   +43 40 39.56  .22412 1.1550 135.8 22.0 .393 137
2022 12 23 02  02 51 05.596   +43 40 21.96  .22445 1.1553 135.8 22.0 .400 137
2022 12 23 03  02 51 15.718   +43 40 04.32  .22478 1.1556 135.8 22.0 .407 136
2022 12 23 04  02 51 25.820   +43 39 46.65  .22511 1.1558 135.8 22.0 .414 136
2022 12 23 05  02 51 35.903   +43 39 28.96  .22544 1.1561 135.8 22.0 .421 136
2022 12 23 06  02 51 45.967   +43 39 11.24  .22577 1.1563 135.8 22.0 .428 135
2022 12 23 07  02 51 56.012   +43 38 53.48  .22610 1.1566 135.8 22.0 .435 135
2022 12 23 08  02 52 06.037   +43 38 35.70  .22644 1.1569 135.8 22.0 .443 134
2022 12 23 09  02 52 16.043   +43 38 17.90  .22677 1.1571 135.8 22.0 .450 134
2022 12 23 10  02 52 26.030   +43 38 00.06  .22710 1.1574 135.8 22.0 .457 134